Home   Weather   Hollabrunn   Past weeks

Flag for Austria Past Weather in Hollabrunn, Lower Austria, Austria — Yesterday and Last 2 Weeks

Now
57 °F

Fog.


Feels Like: 55 °F
Forecast: 61 / 76 °F
Wind: 7 mph from West

Location: Retz

Current Time: Jul 27, 2017 at 6:55:03 am

Latest Report: Jul 27, 2017 at 6:00 am


Visibility: N/A

Pressure: 29.76 "Hg

Humidity: 92%

Dew Point: 54 °F

Location of HollabrunnLocation

Past Weather in Hollabrunn — Graph

°F

Hollabrunn Temperature Yesterday

Maximum temperature yesterday: 69 °F (at 4:00 pm)
Minimum temperature yesterday: 52 °F (at 6:00 am)
Average temperature yesterday: 60 °F

High & Low Weather Summary for the Past Weeks

 TemperatureHumidityPressure
High89 °F (Jul 20, 3:00 pm)99% (Jul 21, 3:00 am)30.24 "Hg (Jul 21, 3:00 am)
Low52 °F (Jul 26, 6:00 am)27% (Jul 16, 5:00 pm)29.59 "Hg (Jul 26, 1:00 pm)
Average68 °F62%29.93 "Hg
* Reported Jul 12 5:00 am — Jul 27 5:00 am, Hollabrunn. Weather by CustomWeather, © 2017

Note: Actual official high and low records may vary slightly from our data, if they occured in-between our weather recording intervals... More about our weather records

Advertising

Hollabrunn Weather History for the Previous 24 Hours

Scroll right to see more
 ConditionsComfort  
Time TempWeatherWind HumidityBarometerVisibility
5:00 am
Thu, Jul 27
57 °FCool.8 mph91%29.75 "HgN/A
4:00 am57 °FCool.8 mph91%29.74 "HgN/A
3:00 am57 °FCool.8 mph88%29.74 "HgN/A
2:00 am58 °FCool.10 mph84%29.73 "HgN/A
1:00 am58 °FCool.10 mph87%29.72 "HgN/A
12:00 am59 °FFog.9 mph89%29.71 "HgN/A
11:00 pm
Wed, Jul 26
61 °FCool.6 mph86%29.70 "HgN/A
10:00 pm61 °FCool.8 mph86%29.67 "HgN/A
9:00 pm63 °FMild.5 mph77%29.67 "HgN/A
8:00 pm64 °FPartly sunny.5 mph73%29.64 "Hg22 mi
7:00 pm64 °FMild.7 mph71%29.62 "HgN/A
6:00 pm67 °FMild.7 mph67%29.62 "HgN/A
5:00 pm65 °FMild.8 mph66%29.61 "HgN/A
4:00 pm69 °FMild.8 mph56%29.59 "HgN/A
3:00 pm67 °FMild.9 mph64%29.61 "HgN/A
2:00 pm64 °FPartly sunny.8 mph69%29.60 "Hg22 mi
1:00 pm66 °FMild.9 mph61%29.59 "HgN/A
12:00 pm64 °FMild.9 mph66%29.60 "HgN/A
11:00 am61 °FCool.7 mph72%29.62 "HgN/A
10:00 am58 °FCool.6 mph81%29.64 "HgN/A
9:00 am58 °FCool.7 mph75%29.63 "HgN/A
8:00 am56 °FPartly sunny.2 mph83%29.63 "Hg16 mi
7:00 am54 °FPartly sunny.2 mph88%29.64 "Hg14 mi
6:00 am52 °FCool.2 mph88%29.65 "HgN/A
Weather by CustomWeather, © 2017

See weather overviewHow to use our weather pages